Location: Sorocaba
(23.4830°S, 47.4500°W)
Time: 10:44:22
(UTC-03:00)

Hubble Space Telescope - Visible Passes

Search period start: 25 May 2022 00:00
Search period end: 04 June 2022 00:00
Orbit: 533 x 536 km, 28.5° (Epoch: 24 May)

Date Brightness Start Highest point End Pass type
(mag) Time Alt. Az. Time Alt. Az. Time Alt. Az.
25 May 2.0 19:04:57 10° NNW 19:08:23 28° NNE 19:08:23 28° NNE visible
26 May 1.6 18:52:52 10° NW 18:56:39 36° NNE 18:57:22 33° NE visible
27 May 1.3 18:40:52 10° NW 18:44:49 46° NNE 18:46:19 31° ENE visible
28 May 1.0 18:28:56 10° WNW 18:32:58 59° NNE 18:35:14 24° E visible
28 May 3.9 20:10:07 10° W 20:10:30 12° W 20:10:30 12° W visible
29 May 0.8 18:17:02 10° WNW 18:21:09 75° NNE 18:24:08 18° ESE visible
29 May 3.5 19:58:24 10° W 19:59:23 16° WSW 19:59:23 16° WSW visible
30 May 0.7 18:05:13 10° WNW 18:09:20 89° SSW 18:12:59 13° ESE visible
30 May 3.1 19:46:41 10° WSW 19:48:15 21° WSW 19:48:15 21° WSW visible
31 May 0.8 17:53:24 10° WNW 17:57:31 75° SSW 18:01:40 10° ESE visible
31 May 2.6 19:34:57 10° WSW 19:37:06 26° SW 19:37:06 26° SW visible
01 Jun 2.1 19:23:12 10° WSW 19:25:56 32° SW 19:25:56 32° SW visible
02 Jun 1.7 19:11:26 10° WSW 19:14:47 38° SSW 19:14:47 38° SSW visible
03 Jun 1.3 18:59:38 10° WSW 19:03:34 41° S 19:03:39 41° S visible
